TimeEDT,TemperatureF,Dew PointF,Humidity,Sea Level PressureIn,VisibilityMPH,Wind Direction,Wind SpeedMPH,Gust SpeedMPH,PrecipitationIn,Events,Conditions,WindDirDegrees,DateUTC
12:53 AM,63.0,57.0,81,29.78,10.0,WNW,15.0,-,N/A,,Partly Cloudy,300,2012-10-29 04:53:00
1:53 AM,62.1,57.0,84,29.78,10.0,WNW,13.8,-,N/A,,Clear,300,2012-10-29 05:53:00
2:53 AM,62.1,55.9,80,29.77,10.0,WNW,16.1,25.3,N/A,,Clear,300,2012-10-29 06:53:00
3:53 AM,60.1,55.9,86,29.77,10.0,WNW,13.8,-,N/A,,Clear,290,2012-10-29 07:53:00
4:53 AM,60.1,55.0,83,29.78,10.0,WNW,11.5,20.7,N/A,,Clear,290,2012-10-29 08:53:00
5:53 AM,61.0,55.0,81,29.79,10.0,WNW,17.3,24.2,N/A,,Overcast,300,2012-10-29 09:53:00
6:53 AM,57.9,52.0,81,29.82,10.0,WNW,13.8,25.3,N/A,,Partly Cloudy,290,2012-10-29 10:53:00
7:53 AM,57.0,52.0,83,29.83,10.0,WNW,13.8,-,N/A,,Clear,290,2012-10-29 11:53:00
8:53 AM,57.9,51.1,78,29.86,10.0,WNW,19.6,25.3,N/A,,Clear,290,2012-10-29 12:53:00
9:53 AM,61.0,51.1,70,29.87,10.0,WNW,13.8,23.0,N/A,,Clear,300,2012-10-29 13:53:00
10:53 AM,63.0,50.0,63,29.88,10.0,WNW,20.7,27.6,N/A,,Clear,300,2012-10-29 14:53:00
11:53 AM,64.9,46.0,50,29.86,10.0,WNW,19.6,29.9,N/A,,Clear,300,2012-10-29 15:53:00
1:53 PM,70.0,41.0,35,29.81,10.0,NW,17.3,26.5,N/A,,Clear,320,2012-10-29 17:53:00
2:53 PM,71.1,39.0,31,29.79,10.0,NW,17.3,25.3,N/A,,Clear,310,2012-10-29 18:53:00
3:53 PM,71.1,39.0,31,29.78,10.0,WNW,13.8,23.0,N/A,,Clear,290,2012-10-29 19:53:00
4:53 PM,71.1,42.1,35,29.77,10.0,West,16.1,-,N/A,,Clear,280,2012-10-29 20:53:00
5:53 PM,70.0,46.0,42,29.77,10.0,WNW,10.4,-,N/A,,Clear,290,2012-10-29 21:53:00
6:53 PM,66.9,46.0,47,29.78,10.0,WNW,10.4,-,N/A,,Clear,290,2012-10-29 22:53:00
7:53 PM,64.9,41.0,42,29.81,10.0,West,11.5,-,N/A,,Clear,280,2012-10-29 23:53:00
8:53 PM,64.0,39.0,40,29.83,10.0,West,15.0,21.9,N/A,,Clear,280,2012-10-30 00:53:00
9:53 PM,62.1,45.0,53,29.86,10.0,West,12.7,23.0,N/A,,Clear,280,2012-10-30 01:53:00
10:53 PM,60.1,46.9,62,29.86,10.0,West,16.1,21.9,N/A,,Clear,280,2012-10-30 02:53:00
11:53 PM,60.1,45.0,57,29.87,10.0,WNW,11.5,-,N/A,,Clear,290,2012-10-30 03:53:00